This demonstration page uses our WeatherBlox Daily Observations layout. Learn more.

Left ArrowRight Arrow

Hourly Observations for February 20, 2022

Temp ( °F °C ) Dew Point ( °F °C ) Humidity (%) Winds ( mph kmh ) Pressure ( in mb ) Visibility ( mi km ) Precip ( " mm )
12:56 am 00:56 Clear 38 3.3 26 -3.3 62 62 SSW 18 30 29.79 1009 10 16 0.00 0.00
1:56 am 01:56 Clear 38 3.3 25 -3.9 60 60 SSW 17 28 29.76 1008 10 16 0.00 0.00
2:56 am 02:56 Clear 37 2.8 23 -5 57 57 SW 16 26 29.75 1008 10 16 0.00 0.00
3:56 am 03:56 Clear 36 2.2 22 -5.6 57 57 WSW 9 15 29.74 1007 10 16 0.00 0.00
4:56 am 04:56 Clear 34 1.1 21 -6.1 59 59 SW 9 15 29.73 1007 10 16 0.00 0.00
5:56 am 05:56 Clear 31 -0.6 22 -5.6 69 69 SSW 6 9 29.75 1008 10 16 0.00 0.00
6:56 am 06:56 Clear 30 -1.1 21 -6.1 69 69 WSW 8 13 29.76 1008 10 16 0.00 0.00
7:56 am 07:56 Sunny 33 0.6 20 -6.7 58 58 W 7 11 29.78 1008 10 16 0.00 0.00
8:56 am 08:56 Sunny 44 6.7 21 -6.1 40 40 NW 14 22 29.78 1009 10 16 0.00 0.00
9:56 am 09:56 Sunny 51 10.6 23 -5 33 33 N 16 26 29.79 1009 10 16 0.00 0.00
10:56 am 10:56 Sunny 57 13.9 25 -3.9 29 29 N 20 31 29.79 1009 10 16 0.00 0.00
11:56 am 11:56 Sunny 60 15.6 24 -4.4 25 25 N 12 19 29.81 1010 10 16 0.00 0.00
12:56 pm 12:56 Sunny 62 16.7 23 -5 22 22 NE 10 17 29.80 1009 10 16 0.00 0.00
1:56 pm 13:56 Sunny 63 17.2 23 -5 22 22 ENE 8 13 29.77 1008 10 16 0.00 0.00
2:56 pm 14:56 Sunny 63 17.2 22 -5.6 21 21 E 8 13 29.76 1008 10 16 0.00 0.00
3:56 pm 15:56 Sunny 63 17.2 23 -5 22 22 SE 5 7 29.76 1008 10 16 0.00 0.00
4:56 pm 16:56 Sunny 64 17.8 24 -4.4 22 22 SSE 13 20 29.76 1008 10 16 0.00 0.00
5:56 pm 17:56 Sunny 59 15 24 -4.4 26 26 SSE 10 17 29.77 1008 10 16 0.00 0.00
6:56 pm 18:56 Clear 49 9.4 21 -6.1 33 33 SSE 9 15 29.78 1009 10 16 0.00 0.00
7:56 pm 19:56 Clear 43 6.1 20 -6.7 40 40 SSE 9 15 29.79 1009 10 16 0.00 0.00
8:56 pm 20:56 Clear 39 3.9 20 -6.7 46 46 SSE 8 13 29.77 1008 10 16 0.00 0.00
9:56 pm 21:56 Clear 37 2.8 20 -6.7 50 50 SE 5 7 29.75 1008 10 16 0.00 0.00
10:56 pm 22:56 Clear 32 0 18 -7.8 56 56 E 6 9 29.73 1007 10 16 0.00 0.00
11:56 pm 23:56 Clear 32 0 19 -7.2 59 59 Calm 29.71 1006 10 16 0.00 0.00

Powered by AerisWeather